sat.trackr.live / text

‹ back to catalog

STARLINK-32035

NORAD 60107 · 2024-117S

PAYLOAD ACTIVE UNKNOWN

§ Identity

Operator
Country
US
Launch date
2024-06-23
Launch site
AFETR
Launch vehicle
Mass (kg)
RCS (m²)

Purposes: comms

External: N2YO · Heavens-Above · Gunter

§ Orbital elements

Epoch: 2026-05-25T03:35:12.384096Z

Period
94.11 min
Inclination
53.1607°
Eccentricity
0.0001441
Mean motion
15.30197078 rev/d
Perigee alt
474.2 km
Apogee alt
476.2 km
Semi-major
6,853.4 km
B*
3.3562e-5
RAAN
41.9137°
Arg perigee
92.9984°
Mean anomaly
267.1181°
Rev number
10,859

§ Raw data

STARLINK-320351 60107U 24117S   26145.14944889  .00000635  00000+0  33562-4 0  99902 60107  53.1607  41.9137 0001441  92.9984 267.1181 15.30197078108594

JSON: /api/v1/satellites/60107 · /tle

For live sub-satellite position, see the globe view (requires WebGL).

§ Visibility from observer

Set your observer location to see the next 7 days of passes ≥ 10°. The values pass through the URL so the page stays shareable.

No JS? Fill the form by hand. The geolocation button needs JavaScript.